Regional Weather Roundup
Issued by NWS New Orleans/Baton Rouge, LA

Home | Current Version | Previous Version | Graphics & Text | Print | Product List | Glossary On
Versions: 1 2 3 4 5 6 7 8 9 10 11 12 13 14 15 16 17 18 19 20 21 22 23 24 25 26 27 28 29 30 31 32 33 34 35 36 37 38 39 40 41 42 43 44 45 46 47 48 49 50
628
ASUS44 KLIX 202001
RWRLIX
NEW ORLEANS REGIONAL WEATHER ROUNDUP
NATIONAL WEATHER SERVICE NEW ORLEANS LA
300 PM CDT SUN APR 20 2014

NOTE: "FAIR" INDICATES FEW OR NO CLOUDS BELOW 12,000 FEET WITH NO
      SIGNIFICANT WEATHER AND/OR OBSTRUCTIONS TO VISIBILITY.
      SKY/WX - SKY CONDITION AND SIGNIFICANT WEATHER.
      TMP - AIR TEMPERATURE.     DP    - DEWPOINT TEMPERATURE.
      RH  - RELATIVE HUMIDITY.   PRES  - PRESSURE.
      HI  - HEAT INDEX.          WCI   - WIND CHILL INDEX.

*  THESE STATIONS ARE NOT NWS OR FAA STATIONS AND ARE NOT UNDER
   NWS QUALITY CONTROL.

LAZ038-040-048-061>063-065>067-069-202100-
SOUTHEAST LOUISIANA

CITY           SKY/WX    TMP DP  RH WIND       PRES   REMARKS
N.O. AUDUBON     N/A     84  56  37 MISG        N/A
N.O. INTL ARPT MOSUNNY   80  47  31 N7        30.14F
N.O. LAKEFRONT SUNNY     76  56  49 NW5       30.14F
N.O. DOWNTOWN*   N/A     81  46  30 CALM      30.14F
SLIDELL        SUNNY     82  51  34 N13G18    30.12F
BATON ROUGE    SUNNY     85  50  29 NE5       30.12F
BOOTHVILLE     SUNNY     68  58  70 E8        30.17F
BELLE CHASSE   MOSUNNY   79  54  41 VRB5      30.13F
BOGALUSA*        N/A     82  48  31 E5        30.15F
GALLIANO*      NOT AVBL
NEW ROADS*     NOT AVBL
GONZALES*        N/A     80  52  37 CALM      30.12F
HAMMOND*       NOT AVBL
HOUMA*         NOT AVBL
PORT FOURCHON* CLEAR     72  59  64 VRB7      30.17F

$$

MSZ070-080>082-202100-
SOUTHERN MISSISSIPPI

CITY           SKY/WX    TMP DP  RH WIND       PRES   REMARKS
MCCOMB         SUNNY     80  48  32 E6        30.14F
GULFPORT       SUNNY     74  58  57 S9        30.14S
BILOXI         NOT AVBL
PASCAGOULA     SUNNY     78  54  43 NE9G18    30.13F
STENNIS ARPT*  MOSUNNY   82  46  28 N7        30.13F

$$

COASTAL OBSERVATIONS
LAKE AND NEARSHORE STATIONS

STATION/POSITION TIME  TEMP    WIND        PRES    WAVE
                       AIR SEA DIR/SP/G            HT/PER
                 (UTC) (F)     (DEG/KT/KT) (MB)    (FT/S)
PASCAGOULA       1900   71     180/  8/ 11 1020.1
WAVELAND YACHT   1900   69 68  190/  9/ 12 1020.1
GRAND ISLE       1900   71 68  110/  5/  7 1021.8
SOUTHWEST PASS   1900   75 59   70/  9/ 11 1021.6
NEW CANAL        1900   72 68   10/  3/  4 1021.4
SHELL BEACH      1900   71 67  100/  2/  3 1020.9

OFFSHORE STATIONS

STATION/POSITION TIME  TEMP    WIND        PRES    WAVE
                       AIR SEA DIR/SP/G            HT/PER
                 (UTC) (F)     (DEG/KT/KT) (MB)    (FT/S)
64 S DAUPHIN ISL 1900   63 71   40/ 10/ 14 1021.6

$$




USA.gov is the U.S. government's official web portal to all federal, state and local government web resources and services.